Regional Weather Roundup
Issued by NWS

Home | Current Version | Previous Version | Graphics & Text | Print | Product List | Glossary On
Versions: 1 2 3 4 5 6 7 8 9 10 11 12 13 14 15 16 17 18 19 20 21 22 23 24 25 26 27 28 29 30 31 32 33 34 35 36 37 38 39 40 41 42 43 44 45 46 47 48 49 50
000
ASUS43 KMKX 222100
RWRWI

WISCONSIN REGIONAL WEATHER ROUNDUP
NATIONAL WEATHER SERVICE MILWAUKEE/SULLIVAN WI
400 PM CDT WED OCT 22 2014

NOTE: "FAIR" INDICATES FEW OR NO CLOUDS BELOW 12,000 FEET WITH NO
SIGNIFICANT WEATHER AND/OR OBSTRUCTIONS TO VISIBILITY.

WIZ001-002-006>008-014>016-023>028-222200-
NORTHWEST WISCONSIN

CITY           SKY/WX    TMP DP  RH WIND       PRES   REMARKS
SUPERIOR ARPT  CLOUDY    58  39  49 S9        30.09F
ASHLAND        SUNNY     61  32  33 S8        30.13F
HAYWARD        SUNNY     57  33  40 S13G23    30.13F
SIREN          CLOUDY    56  37  47 S14G21    30.10F
CUMBERLAND     CLOUDY    54  34  47 S15G21    30.13F
RICE LAKE      PTSUNNY   56  36  48 SE13G22   30.16F
CHETEK         MOSUNNY   56  37  48 SE12G20   30.16F
LADYSMITH      MOSUNNY   56  30  37 SE14G21   30.20F
EAU CLAIRE     NOT AVBL
MENOMONIE      CLOUDY    57  35  43 SE13      30.16F
NEW RICHMOND   CLOUDY    57  38  49 SE14G21   30.12F
OSCEOLA        PTSUNNY   58  40  50 SE14G24   30.13F
$$

WIZ003>005-009-010-017-018-222200-
NORTH CENTRAL WISCONSIN

CITY           SKY/WX    TMP DP  RH WIND       PRES   REMARKS
MANITOWISH WTR MOSUNNY   55  27  34 S13       30.19F
ARBOR VITAE    MOSUNNY   57  26  30 S8        30.21S
WOODRUFF       MOSUNNY   57  26  30 S8        30.21S
RHINELANDER    MOSUNNY   52  27  38 SE9       30.23F
EAGLE RIVER    MOSUNNY   53  21  29 S8        30.22S
LAND O LAKES   MOSUNNY   55  28  35 S8        30.22S
PHILLIPS       SUNNY     55  29  36 SE9G20    30.20S
TOMAHAWK       SUNNY     54  27  35 SE6       30.23S
MEDFORD        SUNNY     53  34  47 SE10      30.22S
MERRILL        SUNNY     55  31  40 S10       30.23F
$$

WIZ029-030-035-036-043>047-222200-
CENTRAL WISCONSIN

CITY           SKY/WX    TMP DP  RH WIND       PRES   REMARKS
WAUSAU         SUNNY     55  32  41 SE13      30.23F
MOSINEE        SUNNY     54  34  47 SE7       30.25F
MARSHFIELD     SUNNY     56  32  40 S13       30.22F
STEVENS POINT  MOSUNNY   54  33  45 S9        30.25F
WAUPACA        MOSUNNY   59  37  43 SE7       30.26F HAZE
WAUTOMA        NOT AVBL
WISC RAPIDS    SUNNY     57  35  43 SE9       30.24F
CAMP DOUGLAS   NOT AVBL
$$

WIZ011>013-019>022-031-037>040-048>050-222200-
NORTHEAST WISCONSIN

CITY           SKY/WX    TMP DP  RH WIND       PRES   REMARKS
ANTIGO         SUNNY     51  33  49 SE12      30.25F
SHAWANO        SUNNY     56  37  49 SE9       30.28F
OCONTO         SUNNY     50  37  60 SE6       30.30F
STURGEON BAY   SUNNY     45  34  65 SE10      30.32F
GREEN BAY      SUNNY     54  35  48 S7        30.29F
MANITOWOC      NOT AVBL
APPLETON       MOSUNNY   54  37  54 SE10      30.28F
CLINTONVILLE   SUNNY     54  34  47 S9        30.27F
OSHKOSH        SUNNY     56  39  53 SE10      30.27F
$$

WIZ032>034-041-042-053>061-222200-
SOUTHWEST WISCONSIN

CITY           SKY/WX    TMP DP  RH WIND       PRES   REMARKS
LA CROSSE      SUNNY     61  37  41 S10       30.19F
SPARTA         SUNNY     60  35  39 S7        30.22F
VIROQUA        SUNNY     58  35  42 S12       30.22S
BOSCOBEL       SUNNY     61  37  41 VRB6      30.24S
PRAIRIE DU CHI SUNNY     59  36  42 SE6       30.22F
PLATTEVILLE    SUNNY     59  39  46 SE12      30.25S
$$

WIZ056-057-062-063-064-067-068-222200-
SOUTH CENTRAL WISCONSIN

CITY           SKY/WX    TMP DP  RH WIND       PRES   REMARKS
REEDSBURG      SUNNY     57  38  47 SE7       30.24F
BARABOO/DELLS  SUNNY     58  36  43 SE10      30.24F
LONE ROCK      NOT AVBL
MINERAL POINT  SUNNY     59  36  41 SE12      30.24F
MADISON        MOSUNNY   58  35  42 SE10      30.25F
MIDDLETON      SUNNY     60  33  35 S7        30.25F
WATERTOWN      SUNNY     57  38  49 SE8       30.27F
MONROE         SUNNY     57  37  47 S8        30.25F
JANESVILLE     SUNNY     61  34  36 S12       30.26F
$$

WIZ051-052-058>065-066-070>072-222200-
SOUTHEAST WISCONSIN

CITY           SKY/WX    TMP DP  RH WIND       PRES   REMARKS
MILWAUKEE      MOSUNNY   50  39  66 E13       30.31F
WAUKESHA       SUNNY     54  39  58 E98       30.30F
MILWAUKEE/TIMM SUNNY     52  37  58 E7        30.31F
RACINE         SUNNY     51  38  60 SE6       30.33F
BURLINGTON     SUNNY     56  37  47 SE7       30.29F
KENOSHA        SUNNY     52  40  63 E8        30.31F
FOND DU LAC    SUNNY     57  38  48 S10       30.27F
SHEBOYGAN      SUNNY     50  38  63 SE8       30.31F
WEST BEND      SUNNY     54  37  54 SE8       30.29F
JUNEAU         SUNNY     55  39  54 E9        30.28F
$$

LSZ147-162-222200-
LAKE SUPERIOR

STATION/POSITION TIME  TEMP    WIND        PRES    WAVE
                       AIR SEA DIR/SP/G            HT/PER
                 (UTC) (F)     (DEG/KT/KT) (MB)    (FT/S)
W MID LAKE BUOY  1950   47 46  100/  8/ 10 1022.3F   1/ 4
DEVILS ISLAND    2000   49     110/ 12/ 14 1021.5F
PORT WING        2000   61     160/  9/ 13 1020.0F
SAXON HARBOR     2000   61     210/ 11/ 18 1021.0F
$$

LMZ867-665-643>646-222200-
LAKE MICHIGAN

STATION/POSITION TIME  TEMP    WIND        PRES    WAVE
                       AIR SEA DIR/SP/G            HT/PER
                 (UTC) (F)     (DEG/KT/KT) (MB)    (FT/S)
CHAMBERS ISLAND  2000   49     110/  4/  6 1026.8F
N MID LAKE BUOY  1950   42 52  160/  4/  4 1028.4F   1
NORTHPORT PIER   2000   44     130/  9/ 11 1027.1F
SISTER BAY       2013          140/ 12/ 15   N/A
KEWAUNEE LAKESHO 2000   46     130/  5/  7 1026.2F
SHEBOYGAN LAKESH 2000   47 50  150/ 10/ 11 1027.5F
PORT WASHINGTON  2000   50     140/  7/  8 1027.4
ATWATER BUOY     2000   49     130/  8/ 10 1027.8F
MILWAUKEE LAKESH 2015   48     110/  9/ 10   N/A
S MID LAKE BUOY  1950   47 55   30/  4/  6 1027.8F   1/ 5
KENOSHA   LAKESH 2000   53     140/  6/  9 1026.8F
$$

TC  - TEMPERATURE IN CELSIUS
VSB - VISIBILITY IN STATUTE MILES
WCI - WIND CHILL INDEX
HX  - HEAT INDEX




USA.gov is the U.S. government's official web portal to all federal, state and local government web resources and services.